IGO311 VOBL-VOMM

Flight info

Callsign IGO311
Flight time 0h 32m
Altitude 19000
Route TULNA8A/09L TULNA W116 MMV
Aircraft A320/M-SDE3FGHIRWY/LB1

Departure

Time 2026-05-06 16:49
Airport Kempegowda International Airport Bengaluru (VOBL)

Arrival

Time 2026-05-06 17:21
Airport Chennai International Airport (VOMM)
Time Latitude Longitude Altitude Speed Heading
2026-05-06 16:35 13.20167 77.70957 2970 ft 0 kts 180°
2026-05-06 16:37 13.20171 77.70957 2970 ft 1 kts 202°
2026-05-06 16:37 13.20183 77.70963 2970 ft 2 kts 180°
2026-05-06 16:37 13.20197 77.70962 2970 ft 2 kts 181°
2026-05-06 16:38 13.20213 77.70963 2969 ft 2 kts 180°
2026-05-06 16:38 13.20228 77.70963 2969 ft 2 kts 180°
2026-05-06 16:38 13.20243 77.70963 2968 ft 2 kts 180°
2026-05-06 16:38 13.20257 77.70963 2968 ft 1 kts 180°
2026-05-06 16:39 13.20263 77.70963 2967 ft 0 kts 217°
2026-05-06 16:39 13.20266 77.70967 2967 ft 0 kts 266°
2026-05-06 16:39 13.20266 77.70973 2967 ft 1 kts 271°
2026-05-06 16:39 13.20266 77.70974 2967 ft 0 kts 270°
2026-05-06 16:42 13.20266 77.70962 2967 ft 5 kts 270°
2026-05-06 16:42 13.20262 77.70885 2970 ft 16 kts 268°
2026-05-06 16:43 13.20261 77.70727 2975 ft 27 kts 269°
2026-05-06 16:43 13.20263 77.70506 2978 ft 25 kts 270°
2026-05-06 16:43 13.20285 77.70397 2980 ft 13 kts 323°
2026-05-06 16:43 13.20370 77.70390 2982 ft 11 kts
2026-05-06 16:44 13.20454 77.70393 2983 ft 12 kts
2026-05-06 16:44 13.20525 77.70370 2984 ft 7 kts 295°
2026-05-06 16:44 13.20531 77.70327 2985 ft 5 kts 271°
2026-05-06 16:44 13.20532 77.70290 2986 ft 7 kts 271°
2026-05-06 16:45 13.20531 77.70213 2988 ft 14 kts 272°
2026-05-06 16:45 13.20534 77.70088 2989 ft 21 kts 271°
2026-05-06 16:45 13.20535 77.69908 2989 ft 29 kts 270°
2026-05-06 16:45 13.20536 77.69696 2990 ft 29 kts 271°
2026-05-06 16:46 13.20535 77.69486 2993 ft 29 kts 269°
2026-05-06 16:46 13.20540 77.69282 2998 ft 27 kts 271°
2026-05-06 16:46 13.20541 77.69086 3001 ft 27 kts 269°
2026-05-06 16:46 13.20542 77.68893 3005 ft 26 kts 271°
2026-05-06 16:47 13.20545 77.68704 3007 ft 26 kts 270°
2026-05-06 16:47 13.20596 77.68617 3007 ft 6 kts 358°
2026-05-06 16:47 13.20599 77.68617 3007 ft 2 kts 359°
2026-05-06 16:47 13.20664 77.68617 3007 ft 16 kts
2026-05-06 16:48 13.20715 77.68713 3007 ft 18 kts 92°
2026-05-06 16:48 13.20710 77.68845 3007 ft 19 kts 91°
2026-05-06 16:48 13.20712 77.69019 3004 ft 43 kts 90°
2026-05-06 16:48 13.20708 77.69625 2996 ft 123 kts 90°
2026-05-06 16:49 13.20707 77.70729 3100 ft 175 kts 90°
2026-05-06 16:49 13.20703 77.71989 3823 ft 182 kts 91°
2026-05-06 16:49 13.20677 77.73300 4610 ft 187 kts 91°
2026-05-06 16:49 13.20606 77.74661 5296 ft 199 kts 95°
2026-05-06 16:50 13.20474 77.76122 5846 ft 216 kts 94°
2026-05-06 16:50 13.20336 77.77743 6378 ft 236 kts 93°
2026-05-06 16:50 13.20190 77.79461 7042 ft 251 kts 93°
2026-05-06 16:50 13.20034 77.81293 7694 ft 266 kts 93°
2026-05-06 16:51 13.19870 77.83255 8280 ft 283 kts 93°
2026-05-06 16:51 13.19700 77.85287 9059 ft 290 kts 92°
2026-05-06 16:51 13.19528 77.87361 9883 ft 295 kts 93°
2026-05-06 16:51 13.19352 77.89501 10522 ft 307 kts 93°
2026-05-06 16:52 13.19168 77.91763 10867 ft 328 kts 93°
2026-05-06 16:52 13.18973 77.94174 11175 ft 348 kts 93°
2026-05-06 16:52 13.18770 77.96701 11495 ft 365 kts 93°
2026-05-06 16:52 13.18560 77.99352 12033 ft 373 kts 93°
2026-05-06 16:53 13.18337 78.02036 12630 ft 378 kts 94°
2026-05-06 16:53 13.18087 78.04759 13244 ft 382 kts 94°
2026-05-06 16:53 13.17839 78.07448 13834 ft 386 kts 94°
2026-05-06 16:53 13.17596 78.10192 14411 ft 389 kts 94°
2026-05-06 16:54 13.17358 78.12968 14965 ft 393 kts 94°
2026-05-06 16:54 13.17122 78.15785 15502 ft 397 kts 94°
2026-05-06 16:54 13.16886 78.18620 16030 ft 401 kts 94°
2026-05-06 16:54 13.16649 78.21485 16537 ft 405 kts 94°
2026-05-06 16:55 13.16410 78.24371 17028 ft 408 kts 94°
2026-05-06 16:55 13.16169 78.27280 17502 ft 412 kts 94°
2026-05-06 16:55 13.15921 78.30246 17986 ft 415 kts 94°
2026-05-06 16:55 13.15672 78.33177 18436 ft 418 kts 94°
2026-05-06 16:56 13.15423 78.36159 18756 ft 418 kts 94°
2026-05-06 16:56 13.15180 78.39140 18848 ft 415 kts 94°
2026-05-06 16:56 13.14946 78.42020 18857 ft 397 kts 94°
2026-05-06 16:56 13.14650 78.44785 18858 ft 379 kts 98°
2026-05-06 16:57 13.14226 78.47407 18849 ft 362 kts 99°
2026-05-06 16:57 13.13821 78.49915 18853 ft 349 kts 98°
2026-05-06 16:57 13.13436 78.52352 18848 ft 344 kts 98°
2026-05-06 16:57 13.13059 78.54782 18842 ft 344 kts 98°
2026-05-06 16:58 13.12686 78.57217 18844 ft 345 kts 98°
2026-05-06 16:58 13.12313 78.59663 18841 ft 345 kts 98°
2026-05-06 16:58 13.11945 78.62089 18835 ft 346 kts 98°
2026-05-06 16:58 13.11576 78.64525 18831 ft 346 kts 98°
2026-05-06 16:59 13.11203 78.66988 18834 ft 346 kts 98°
2026-05-06 16:59 13.10835 78.69419 18827 ft 346 kts 98°
2026-05-06 16:59 13.10468 78.71846 18825 ft 345 kts 98°
2026-05-06 16:59 13.10101 78.74273 18819 ft 346 kts 98°
2026-05-06 17:00 13.09721 78.76786 18757 ft 345 kts 98°
2026-05-06 17:00 13.09352 78.79221 18467 ft 342 kts 98°
2026-05-06 17:00 13.08987 78.81624 18042 ft 341 kts 98°
2026-05-06 17:00 13.08623 78.84026 17644 ft 339 kts 98°
2026-05-06 17:01 13.08259 78.86427 17246 ft 338 kts 98°
2026-05-06 17:01 13.07898 78.88805 16873 ft 335 kts 98°
2026-05-06 17:01 13.07537 78.91178 16491 ft 333 kts 98°
2026-05-06 17:01 13.07185 78.93493 16118 ft 331 kts 98°
2026-05-06 17:02 13.06829 78.95837 15743 ft 328 kts 97°
2026-05-06 17:02 13.06481 78.98136 15380 ft 326 kts 98°
2026-05-06 17:02 13.06134 79.00424 15023 ft 323 kts 97°
2026-05-06 17:02 13.05790 79.02687 14649 ft 321 kts 97°
2026-05-06 17:03 13.05445 79.04961 14278 ft 318 kts 97°
2026-05-06 17:03 13.05104 79.07204 13920 ft 316 kts 97°
2026-05-06 17:03 13.04764 79.09429 13574 ft 314 kts 97°
2026-05-06 17:03 13.04427 79.11642 13216 ft 312 kts 97°
2026-05-06 17:04 13.04090 79.13848 12843 ft 310 kts 97°
2026-05-06 17:04 13.03760 79.16005 12494 ft 307 kts 97°
2026-05-06 17:04 13.03427 79.18182 12159 ft 304 kts 97°
2026-05-06 17:04 13.03102 79.20306 11815 ft 301 kts 97°
2026-05-06 17:05 13.02775 79.22440 11468 ft 299 kts 97°
2026-05-06 17:05 13.02455 79.24532 11131 ft 296 kts 97°
2026-05-06 17:05 13.02138 79.26600 10786 ft 294 kts 97°
2026-05-06 17:05 13.01821 79.28666 10430 ft 292 kts 97°
2026-05-06 17:06 13.01503 79.30741 10091 ft 290 kts 97°
2026-05-06 17:06 13.01191 79.32770 9845 ft 288 kts 96°
2026-05-06 17:06 13.00880 79.34799 9800 ft 289 kts 97°
2026-05-06 17:06 13.00565 79.36845 9747 ft 286 kts 96°
2026-05-06 17:07 13.00257 79.38848 9462 ft 283 kts 96°
2026-05-06 17:07 12.99947 79.40863 9081 ft 283 kts 96°
2026-05-06 17:07 12.99641 79.42852 8722 ft 282 kts 96°
2026-05-06 17:07 12.99362 79.44663 8408 ft 280 kts 96°
2026-05-06 17:08 12.99046 79.46709 8026 ft 280 kts 96°
2026-05-06 17:08 12.98742 79.48681 7676 ft 279 kts 96°
2026-05-06 17:08 12.98440 79.50645 7327 ft 278 kts 96°
2026-05-06 17:08 12.98136 79.52614 6973 ft 277 kts 96°
2026-05-06 17:09 12.97833 79.54576 6632 ft 276 kts 97°
2026-05-06 17:09 12.97528 79.56546 6284 ft 275 kts 97°
2026-05-06 17:09 12.97226 79.58504 5930 ft 275 kts 97°
2026-05-06 17:09 12.96929 79.60425 5621 ft 273 kts 97°
2026-05-06 17:10 12.96630 79.62352 5304 ft 271 kts 97°
2026-05-06 17:10 12.96336 79.64250 4985 ft 269 kts 97°
2026-05-06 17:10 12.96042 79.66151 4696 ft 266 kts 98°
2026-05-06 17:10 12.95748 79.68044 4400 ft 264 kts 98°
2026-05-06 17:11 12.95464 79.69879 4097 ft 263 kts 98°
2026-05-06 17:11 12.95176 79.71738 3784 ft 261 kts 98°
2026-05-06 17:11 12.94889 79.73586 3474 ft 260 kts 98°
2026-05-06 17:11 12.94602 79.75433 3168 ft 258 kts 98°
2026-05-06 17:12 12.94322 79.77240 2901 ft 255 kts 98°
2026-05-06 17:12 12.94043 79.79032 2585 ft 255 kts 98°
2026-05-06 17:12 12.93765 79.80823 2301 ft 253 kts 99°
2026-05-06 17:12 12.93488 79.82600 2152 ft 245 kts 99°
2026-05-06 17:13 12.93226 79.84287 2034 ft 237 kts 99°
2026-05-06 17:13 12.92969 79.85940 1926 ft 229 kts 99°
2026-05-06 17:13 12.92722 79.87521 1827 ft 222 kts 99°
2026-05-06 17:13 12.92481 79.89065 1789 ft 212 kts 99°
2026-05-06 17:14 12.92251 79.90540 1782 ft 201 kts 99°
2026-05-06 17:14 12.92035 79.91927 1781 ft 191 kts 99°
2026-05-06 17:14 12.91829 79.93245 1781 ft 183 kts 99°
2026-05-06 17:14 12.91631 79.94513 1799 ft 171 kts 99°
2026-05-06 17:15 12.91493 79.95669 1782 ft 152 kts 91°
2026-05-06 17:15 12.91588 79.96696 1769 ft 138 kts 80°
2026-05-06 17:15 12.91834 79.97636 1769 ft 137 kts 74°
2026-05-06 17:15 12.92154 79.98576 1774 ft 138 kts 72°
2026-05-06 17:16 12.92491 79.99492 1774 ft 138 kts 71°
2026-05-06 17:16 12.92839 80.00419 1773 ft 138 kts 71°
2026-05-06 17:16 12.93181 80.01335 1767 ft 137 kts 71°
2026-05-06 17:16 12.93527 80.02255 1763 ft 137 kts 71°
2026-05-06 17:17 12.93864 80.03155 1765 ft 137 kts 71°
2026-05-06 17:17 12.94212 80.04083 1766 ft 136 kts 71°
2026-05-06 17:17 12.94550 80.04988 1765 ft 136 kts 71°
2026-05-06 17:17 12.94888 80.05883 1769 ft 129 kts 71°
2026-05-06 17:18 12.95207 80.06740 1715 ft 128 kts 71°
2026-05-06 17:18 12.95528 80.07593 1564 ft 126 kts 71°
2026-05-06 17:18 12.95849 80.08453 1403 ft 127 kts 71°
2026-05-06 17:18 12.96170 80.09305 1237 ft 128 kts 72°
2026-05-06 17:19 12.96493 80.10168 1071 ft 129 kts 71°
2026-05-06 17:19 12.96816 80.11028 909 ft 129 kts 72°
2026-05-06 17:19 12.97139 80.11890 748 ft 130 kts 71°
2026-05-06 17:19 12.97468 80.12766 582 ft 131 kts 71°
2026-05-06 17:20 12.97797 80.13641 415 ft 132 kts 71°
2026-05-06 17:20 12.98125 80.14523 242 ft 132 kts 72°
2026-05-06 17:20 12.98462 80.15418 69 ft 134 kts 71°
2026-05-06 17:20 12.98766 80.16233 45 ft 105 kts 69°
2026-05-06 17:21 12.98973 80.16778 47 ft 57 kts 69°
2026-05-06 17:21 12.99094 80.17104 47 ft 27 kts 69°
2026-05-06 17:21 12.99070 80.17207 48 ft 15 kts 158°
2026-05-06 17:21 12.99017 80.17228 49 ft 0 kts 159°
2026-05-06 17:22 12.99013 80.17230 49 ft 0 kts 159°
2026-05-06 17:22 12.99010 80.17230 49 ft 1 kts 159°
2026-05-06 17:22 12.98982 80.17241 49 ft 6 kts 166°
2026-05-06 17:22 12.98932 80.17200 51 ft 14 kts 246°
2026-05-06 17:23 12.98883 80.17072 50 ft 24 kts 249°
2026-05-06 17:23 12.98809 80.16879 49 ft 31 kts 248°
2026-05-06 17:23 12.98751 80.16738 48 ft 8 kts 230°
2026-05-06 17:23 12.98699 80.16740 49 ft 9 kts 160°
2026-05-06 17:24 12.98623 80.16767 51 ft 9 kts 167°
2026-05-06 17:24 12.98579 80.16733 52 ft 7 kts 216°
2026-05-06 17:24 12.98538 80.16733 53 ft 0 kts 165°
2026-05-06 17:24 12.98529 80.16736 53 ft 3 kts 162°
2026-05-06 17:25 12.98518 80.16740 53 ft 0 kts 160°
2026-05-06 17:25 12.98511 80.16743 53 ft 0 kts 159°
2026-05-06 17:25 12.98508 80.16743 54 ft 0 kts 158°
2026-05-06 17:25 12.98502 80.16746 54 ft 0 kts 159°